COSMOS 2298

Satellite information

Favourite Embed

Satellite Type and Status

PAYLOADIN ORBIT

Key statistics

Satellite COSMOS 2298 at a glance.

Uptime

11096

Days in orbit

Revolutions

≈ 14.3

Per day

Orbit

LEO

Low Earth Orbit

Inclination

74.0

Latest

Satellite identification and parameters

Extended collection of information and parameters for COSMOS 2298.

Object identification

Identified? True

Debris? False

Object name: COSMOS 2298

International designator: 1994-083A

Object number (NORAD): 23431

Object ID (CCSDS): 23431

Country: COMMONWEALTH OF INDEPENDENT STATES (CIS)

Current information (Y/N): Y

RCS size: LARGE

Orbital parameters

Period: 100.626 minutes

Inclination: 74.0283 deg

SMA: 7166.403 km

Apoapsis: 800.268 km

Periapsis: 776.269 km

RAAN: 168.889 deg

Eccentricy: 0.0016744

Argument of periapsis: 211.3116 deg

Mean anomaly: 148.7039 deg

Mean motion: 14.31037117 rev/day

Mean motion (dot): 0.00000149 rev/day2

B* drag term: 0.000066497 1/REarth

Two-line elements (TLE)

Creation date: May 7, 2025, 3:14 a.m.

Reference frame: TEME

Reference center: EARTH

Epoch: May 6, 2025, 1:12 p.m. UTC

TLE line 0: 0 COSMOS 2298

TLE line 1: 1 23431U 94083A 25126.55009107 .00000149 00000-0 66497-4 0 9990

TLE line 2: 2 23431 74.0283 168.8890 0016744 211.3116 148.7039 14.31037117585510

Live tracking on map

Real-time ground track for satellite COSMOS 2298.

In-orbit conjunctions

A list of the most updated potential collisions computed for object COSMOS 2298.

Target Orbit TCA Probability of collision Miss distance Type
NOAA 16 DEB SSO 2025-02-15 05:44:56 0.0004528471 91.0 (m) DEBRIS
DMSP 5D-2 F13 DEB SSO 2024-12-10 09:50:10 0.0002211415 267.0 (m) DEBRIS
DMSP 5D-2 F13 DEB SSO 2024-11-02 11:17:08 0.0001051693 889.0 (m) DEBRIS
CZ-6A DEB LEO 2024-10-12 13:06:58 0.0009306518 390.0 (m) DEBRIS

Associated space launch

Military communications satellite

COSMOS 2298 was lifted into orbit during the mission ‘Kosmos-3M | Strela-2M 52’, on board a Kosmos-3M space rocket.

The launch took place on Dec. 20, 1994, 5:11 a.m. from 132/1 (132L).

For more information about the launch, click the button.

Launch to space Kosmos-3M | Strela-2M 52
Kosmos-3M | Strela-2M 52

Agency: N/A

Status: Launch Successful

Launch date: Dec. 20, 1994, 5:11 a.m. UTC

Rocket: Kosmos-3M

Launch pad: 132/1 (132L)

Location: Plesetsk Cosmodrome, Russian Federation

...

Latest news about this satellite

There are no fresh news available about this satellite. Check back as we update our databases every day.


Newsletter sign-up

Weekly statistics, charts and insights to help you stay on top of the space industry.